VSV5212 UAAA-LTAI

Flight info

Callsign VSV5212
Flight time 5h 57m
Altitude 34000
Route EKLAT Z370 RISAS L855 KZO M610 DIVNO N161 GASBI/N0469F340 N161 LEYLA T916 MATAL M11 TABAS/N0456F360 M11 REBLO UT165 KAR UT309 ERZ UL615 SIV UA285 SELVI/N0460F350 UA285 MUT/N0458F360 UR55 KETEK DCT TEWHE
Aircraft B752/M-SDE2E3FGHIJ3J4J7RWXY/LB1

Departure

Time 2026-04-25 07:55
Airport Almaty International Airport (UAAA)

Arrival

Time 2026-04-25 13:52
Airport Antalya International Airport (LTAI)
Time Latitude Longitude Altitude Speed Heading
2026-04-25 07:33 43.34739 77.01908 2233 ft 0 kts
2026-04-25 07:47 43.34743 77.01908 2233 ft 2 kts
2026-04-25 07:48 43.34774 77.01909 2233 ft 5 kts 355°
2026-04-25 07:48 43.34800 77.01877 2233 ft 5 kts 287°
2026-04-25 07:48 43.34804 77.01817 2233 ft 6 kts 274°
2026-04-25 07:48 43.34808 77.01750 2233 ft 7 kts 274°
2026-04-25 07:49 43.34811 77.01678 2233 ft 7 kts 273°
2026-04-25 07:49 43.34815 77.01603 2233 ft 7 kts 274°
2026-04-25 07:49 43.34817 77.01529 2233 ft 7 kts 259°
2026-04-25 07:49 43.34783 77.01485 2233 ft 7 kts 201°
2026-04-25 07:50 43.34737 77.01462 2234 ft 6 kts 199°
2026-04-25 07:50 43.34693 77.01442 2235 ft 5 kts 188°
2026-04-25 07:50 43.34656 77.01453 2236 ft 5 kts 159°
2026-04-25 07:50 43.34621 77.01466 2237 ft 5 kts 174°
2026-04-25 07:51 43.34589 77.01467 2239 ft 4 kts 174°
2026-04-25 07:51 43.34542 77.01491 2240 ft 9 kts 155°
2026-04-25 07:51 43.34471 77.01536 2242 ft 10 kts 155°
2026-04-25 07:51 43.34417 77.01570 2243 ft 6 kts 155°
2026-04-25 07:52 43.34383 77.01592 2243 ft 4 kts 155°
2026-04-25 07:52 43.34340 77.01619 2244 ft 9 kts 155°
2026-04-25 07:52 43.34264 77.01666 2245 ft 12 kts 156°
2026-04-25 07:52 43.34201 77.01706 2246 ft 7 kts 150°
2026-04-25 07:53 43.34148 77.01752 2247 ft 7 kts 142°
2026-04-25 07:53 43.34149 77.01796 2247 ft 4 kts 57°
2026-04-25 07:53 43.34169 77.01839 2247 ft 13 kts 57°
2026-04-25 07:53 43.34224 77.01951 2247 ft 2 kts 55°
2026-04-25 07:54 43.34257 77.02017 2247 ft 25 kts 55°
2026-04-25 07:54 43.34486 77.02479 2244 ft 91 kts 55°
2026-04-25 07:54 43.34964 77.03447 2242 ft 152 kts 56°
2026-04-25 07:54 43.35654 77.04842 2361 ft 194 kts 54°
2026-04-25 07:55 43.36465 77.06440 2840 ft 211 kts 54°
2026-04-25 07:55 43.37310 77.08025 3792 ft 209 kts 53°
2026-04-25 07:55 43.38189 77.09646 4563 ft 214 kts 52°
2026-04-25 07:55 43.39082 77.11237 5400 ft 213 kts 50°
2026-04-25 07:56 43.40155 77.12707 5672 ft 229 kts 28°
2026-04-25 07:56 43.41705 77.13219 6088 ft 236 kts 354°
2026-04-25 07:56 43.43301 77.12483 6372 ft 255 kts 324°
2026-04-25 07:56 43.44487 77.10596 6729 ft 270 kts 294°
2026-04-25 07:57 43.44846 77.08102 7445 ft 270 kts 270°
2026-04-25 07:57 43.44749 77.05519 8042 ft 276 kts 267°
2026-04-25 07:57 43.44611 77.02836 8527 ft 285 kts 267°
2026-04-25 07:57 43.44469 77.00150 9233 ft 285 kts 267°
2026-04-25 07:58 43.44326 76.97429 9847 ft 288 kts 267°
2026-04-25 07:58 43.44179 76.94684 10472 ft 290 kts 267°
2026-04-25 07:58 43.44029 76.91866 10757 ft 306 kts 267°
2026-04-25 07:58 43.43872 76.88860 10963 ft 324 kts 268°
2026-04-25 07:59 43.43709 76.85657 11138 ft 342 kts 267°
2026-04-25 07:59 43.43542 76.82325 11294 ft 359 kts 266°
2026-04-25 07:59 43.43390 76.78854 11574 ft 370 kts 267°
2026-04-25 07:59 43.43227 76.75346 12229 ft 370 kts 268°
2026-04-25 08:00 43.43084 76.71819 12792 ft 372 kts 268°
2026-04-25 08:00 43.42960 76.68300 13378 ft 375 kts 269°
2026-04-25 08:00 43.42853 76.64724 14053 ft 373 kts 268°
2026-04-25 08:00 43.42707 76.61159 14387 ft 382 kts 268°
2026-04-25 08:01 43.42556 76.57478 15086 ft 380 kts 268°
2026-04-25 08:01 43.42402 76.53907 15665 ft 383 kts 268°
2026-04-25 08:01 43.42245 76.50199 16215 ft 386 kts 268°
2026-04-25 08:01 43.42089 76.46538 16753 ft 388 kts 268°
2026-04-25 08:02 43.41931 76.42841 17310 ft 391 kts 268°
2026-04-25 08:02 43.41772 76.39121 17818 ft 393 kts 268°
2026-04-25 08:02 43.41610 76.35357 18308 ft 396 kts 268°
2026-04-25 08:02 43.41445 76.31561 18785 ft 399 kts 267°
2026-04-25 08:03 43.41278 76.27756 19304 ft 401 kts 268°
2026-04-25 08:03 43.41108 76.23889 19735 ft 405 kts 267°
2026-04-25 08:03 43.40937 76.20040 20239 ft 407 kts 268°
2026-04-25 08:03 43.40763 76.16161 20638 ft 410 kts 267°
2026-04-25 08:04 43.40586 76.12238 21085 ft 413 kts 268°
2026-04-25 08:04 43.40407 76.08300 21523 ft 416 kts 268°
2026-04-25 08:04 43.40226 76.04340 21914 ft 419 kts 268°
2026-04-25 08:04 43.40041 76.00337 22322 ft 422 kts 268°
2026-04-25 08:05 43.39855 75.96328 22752 ft 424 kts 268°
2026-04-25 08:05 43.39666 75.92303 23163 ft 425 kts 268°
2026-04-25 08:05 43.39475 75.88264 23572 ft 427 kts 268°
2026-04-25 08:05 43.39282 75.84197 23985 ft 429 kts 268°
2026-04-25 08:06 43.39085 75.80082 24334 ft 432 kts 268°
2026-04-25 08:06 43.38886 75.75980 24767 ft 432 kts 268°
2026-04-25 08:06 43.38686 75.71871 25116 ft 434 kts 268°
2026-04-25 08:06 43.38484 75.67749 25493 ft 435 kts 268°
2026-04-25 08:07 43.38277 75.63554 25764 ft 439 kts 268°
2026-04-25 08:07 43.38070 75.59392 26156 ft 438 kts 268°
2026-04-25 08:07 43.38027 75.55236 26453 ft 439 kts 276°
2026-04-25 08:07 43.38489 75.51120 26717 ft 440 kts 284°
2026-04-25 08:08 43.39239 75.47066 27042 ft 441 kts 285°
2026-04-25 08:08 43.39986 75.42989 27337 ft 442 kts 285°
2026-04-25 08:08 43.40741 75.38899 27609 ft 444 kts 285°
2026-04-25 08:08 43.41506 75.34762 27933 ft 445 kts 284°
2026-04-25 08:09 43.42274 75.30607 28209 ft 447 kts 284°
2026-04-25 08:09 43.43035 75.26488 28486 ft 448 kts 284°
2026-04-25 08:09 43.43798 75.22353 28787 ft 449 kts 284°
2026-04-25 08:09 43.44564 75.18199 29060 ft 450 kts 284°
2026-04-25 08:10 43.45331 75.14035 29301 ft 452 kts 284°
2026-04-25 08:10 43.46099 75.09856 29602 ft 452 kts 284°
2026-04-25 08:10 43.46867 75.05666 29792 ft 455 kts 284°
2026-04-25 08:10 43.47637 75.01458 30116 ft 454 kts 285°
2026-04-25 08:11 43.48401 74.97270 30476 ft 453 kts 285°
2026-04-25 08:11 43.49172 74.93039 30789 ft 452 kts 284°
2026-04-25 08:11 43.49934 74.88844 31036 ft 452 kts 284°
2026-04-25 08:11 43.50692 74.84669 31329 ft 452 kts 284°
2026-04-25 08:12 43.51446 74.80499 31581 ft 451 kts 284°
2026-04-25 08:12 43.52197 74.76332 31873 ft 450 kts 284°
2026-04-25 08:12 43.52948 74.72156 32116 ft 450 kts 284°
2026-04-25 08:12 43.53695 74.67991 32367 ft 449 kts 284°
2026-04-25 08:13 43.54439 74.63833 32580 ft 450 kts 284°
2026-04-25 08:13 43.55182 74.59672 32797 ft 449 kts 284°
2026-04-25 08:13 43.55926 74.55494 32993 ft 449 kts 284°
2026-04-25 08:14 43.57405 74.47166 33387 ft 449 kts 284°
2026-04-25 08:14 43.58140 74.43008 33575 ft 449 kts 284°
2026-04-25 08:14 43.58874 74.38855 33783 ft 448 kts 284°
2026-04-25 08:14 43.59609 74.34682 33902 ft 450 kts 283°
2026-04-25 08:15 43.60347 74.30480 34096 ft 449 kts 283°
2026-04-25 08:15 43.61810 74.22125 34153 ft 450 kts 283°
2026-04-25 08:16 43.63270 74.13799 34144 ft 447 kts 283°
2026-04-25 08:16 43.64726 74.05460 34141 ft 448 kts 284°
2026-04-25 08:17 43.66170 73.97155 34128 ft 448 kts 283°
2026-04-25 08:17 43.67613 73.88819 34125 ft 448 kts 283°
2026-04-25 08:18 43.69054 73.80454 34120 ft 449 kts 283°
2026-04-25 08:18 43.70470 73.72054 34117 ft 449 kts 283°
2026-04-25 08:19 43.71822 73.63663 34120 ft 449 kts 283°
2026-04-25 08:19 43.73170 73.55270 34113 ft 449 kts 283°
2026-04-25 08:20 43.74515 73.46861 34107 ft 450 kts 283°
2026-04-25 08:20 43.75852 73.38452 34107 ft 448 kts 283°
2026-04-25 08:21 43.77190 73.29996 34105 ft 449 kts 282°
2026-04-25 08:21 43.78508 73.21625 34106 ft 449 kts 282°
2026-04-25 08:22 43.79828 73.13196 34106 ft 449 kts 282°
2026-04-25 08:22 43.81146 73.04740 34110 ft 450 kts 282°
2026-04-25 08:23 43.82448 72.96336 34114 ft 451 kts 282°
2026-04-25 08:23 43.83756 72.87857 34111 ft 451 kts 282°
2026-04-25 08:24 43.85057 72.79372 34110 ft 451 kts 282°
2026-04-25 08:24 43.86341 72.70963 34105 ft 450 kts 282°
2026-04-25 08:25 43.87627 72.62493 34110 ft 449 kts 282°
2026-04-25 08:25 43.88902 72.54045 34098 ft 449 kts 282°
2026-04-25 08:26 43.90169 72.45609 34104 ft 448 kts 282°
2026-04-25 08:26 43.91432 72.37158 34098 ft 448 kts 282°
2026-04-25 08:27 43.92681 72.28746 34106 ft 449 kts 282°
2026-04-25 08:27 43.93934 72.20273 34099 ft 450 kts 282°
2026-04-25 08:28 43.95181 72.11794 34099 ft 450 kts 282°
2026-04-25 08:28 43.96419 72.03322 34093 ft 448 kts 282°
2026-04-25 08:29 43.97639 71.94933 34090 ft 446 kts 282°
2026-04-25 08:29 43.98860 71.86493 34085 ft 448 kts 281°
2026-04-25 08:30 44.00079 71.78033 34083 ft 448 kts 282°
2026-04-25 08:30 44.01292 71.69565 34077 ft 448 kts 281°
2026-04-25 08:31 44.02496 71.61114 34072 ft 448 kts 282°
2026-04-25 08:31 44.03698 71.52627 34064 ft 449 kts 282°
2026-04-25 08:32 44.04895 71.44133 34064 ft 450 kts 282°
2026-04-25 08:32 44.06088 71.35624 34060 ft 449 kts 281°
2026-04-25 08:33 44.07267 71.27158 34066 ft 450 kts 281°
2026-04-25 08:33 44.08443 71.18668 34059 ft 448 kts 281°
2026-04-25 08:34 44.09614 71.10158 34060 ft 447 kts 281°
2026-04-25 08:34 44.10771 71.01704 34062 ft 448 kts 281°
2026-04-25 08:35 44.11932 70.93192 34062 ft 448 kts 281°
2026-04-25 08:35 44.13084 70.84707 34061 ft 448 kts 281°
2026-04-25 08:36 44.14227 70.76241 34061 ft 449 kts 281°
2026-04-25 08:36 44.15371 70.67711 34059 ft 449 kts 281°
2026-04-25 08:37 44.16509 70.59171 34056 ft 448 kts 281°
2026-04-25 08:37 44.17635 70.50680 34055 ft 447 kts 281°
2026-04-25 08:38 44.18746 70.42245 34053 ft 446 kts 281°
2026-04-25 08:38 44.19862 70.33763 34053 ft 447 kts 280°
2026-04-25 08:39 44.20975 70.25274 34058 ft 447 kts 280°
2026-04-25 08:39 44.22083 70.16772 34056 ft 448 kts 280°
2026-04-25 08:40 44.23189 70.08228 34057 ft 448 kts 280°
2026-04-25 08:40 44.24285 69.99711 34057 ft 448 kts 280°
2026-04-25 08:41 44.25375 69.91196 34054 ft 448 kts 279°
2026-04-25 08:41 44.26456 69.82694 34054 ft 447 kts 279°
2026-04-25 08:42 44.27532 69.74173 34054 ft 447 kts 279°
2026-04-25 08:42 44.28601 69.65652 34052 ft 446 kts 279°
2026-04-25 08:43 44.29659 69.57175 34052 ft 446 kts 279°
2026-04-25 08:43 44.30713 69.48672 34051 ft 447 kts 279°
2026-04-25 08:44 44.31762 69.40158 34047 ft 446 kts 279°
2026-04-25 08:44 44.32806 69.31623 34053 ft 447 kts 279°
2026-04-25 08:45 44.33847 69.23065 34050 ft 447 kts 279°
2026-04-25 08:45 44.34878 69.14530 34041 ft 448 kts 279°
2026-04-25 08:46 44.35904 69.05986 34035 ft 448 kts 279°
2026-04-25 08:46 44.36924 68.97433 34031 ft 447 kts 279°
2026-04-25 08:47 44.37935 68.88899 34029 ft 446 kts 279°
2026-04-25 08:47 44.38932 68.80428 34032 ft 446 kts 279°
2026-04-25 08:48 44.39934 68.71852 34033 ft 445 kts 278°
2026-04-25 08:48 44.40924 68.63331 34036 ft 445 kts 278°
2026-04-25 08:49 44.41906 68.54809 34036 ft 446 kts 278°
2026-04-25 08:49 44.42883 68.46273 34031 ft 446 kts 278°
2026-04-25 08:50 44.43854 68.37739 34025 ft 446 kts 278°
2026-04-25 08:50 44.44817 68.29218 34032 ft 447 kts 278°
2026-04-25 08:51 44.45776 68.20657 34024 ft 446 kts 277°
2026-04-25 08:51 44.46683 68.12084 34018 ft 445 kts 277°
2026-04-25 08:52 44.47580 68.03542 34026 ft 445 kts 277°
2026-04-25 08:52 44.48471 67.95004 34023 ft 445 kts 277°
2026-04-25 08:53 44.49347 67.86494 34013 ft 443 kts 276°
2026-04-25 08:53 44.49603 67.77907 34016 ft 443 kts 272°
2026-04-25 08:54 44.50115 67.69332 34024 ft 443 kts 275°
2026-04-25 08:54 44.50821 67.60771 34024 ft 443 kts 276°
2026-04-25 08:55 44.51609 67.52265 34018 ft 444 kts 277°
2026-04-25 08:55 44.52464 67.43737 34024 ft 442 kts 277°
2026-04-25 08:56 44.53327 67.35216 34036 ft 442 kts 277°
2026-04-25 08:56 44.54187 67.26722 34041 ft 441 kts 277°
2026-04-25 08:57 44.55042 67.18250 34034 ft 440 kts 277°
2026-04-25 08:57 44.55886 67.09835 34013 ft 440 kts 277°
2026-04-25 08:58 44.56731 67.01354 33990 ft 440 kts 276°
2026-04-25 08:58 44.57570 66.92858 33986 ft 441 kts 276°
2026-04-25 08:59 44.58399 66.84405 33980 ft 441 kts 276°
2026-04-25 08:59 44.59229 66.75875 33972 ft 440 kts 276°
2026-04-25 09:00 44.60046 66.67404 33969 ft 439 kts 276°
2026-04-25 09:00 44.60851 66.58955 33966 ft 440 kts 276°
2026-04-25 09:01 44.61560 66.50472 33963 ft 439 kts 276°
2026-04-25 09:01 44.62260 66.41994 33964 ft 438 kts 276°
2026-04-25 09:02 44.62948 66.33583 33959 ft 437 kts 275°
2026-04-25 09:02 44.63634 66.25125 33961 ft 436 kts 275°
2026-04-25 09:03 44.64312 66.16691 33962 ft 436 kts 275°
2026-04-25 09:03 44.64983 66.08258 33959 ft 436 kts 275°
2026-04-25 09:04 44.65646 65.99847 33956 ft 434 kts 275°
2026-04-25 09:04 44.66304 65.91417 33953 ft 436 kts 274°
2026-04-25 09:05 44.66957 65.82977 33941 ft 435 kts 274°
2026-04-25 09:05 44.67598 65.74611 33942 ft 434 kts 274°
2026-04-25 09:06 44.68235 65.66208 33944 ft 435 kts 274°
2026-04-25 09:06 44.68871 65.57777 33928 ft 435 kts 276°
2026-04-25 09:07 44.70237 65.49461 33935 ft 437 kts 282°
2026-04-25 09:07 44.71775 65.41201 33930 ft 439 kts 283°
2026-04-25 09:08 44.73309 65.32985 33927 ft 438 kts 282°
2026-04-25 09:08 44.74844 65.24738 33930 ft 437 kts 282°
2026-04-25 09:09 44.76383 65.16445 33928 ft 438 kts 282°
2026-04-25 09:09 44.77902 65.08223 33928 ft 438 kts 282°
2026-04-25 09:10 44.79422 64.99965 33926 ft 438 kts 282°
2026-04-25 09:10 44.80946 64.91650 33923 ft 438 kts 282°
2026-04-25 09:11 44.83136 64.79262 33921 ft 437 kts 281°
2026-04-25 09:11 44.84569 64.70989 33918 ft 437 kts 281°
2026-04-25 09:12 44.86000 64.62695 33917 ft 434 kts 281°
2026-04-25 09:12 44.87355 64.54440 33918 ft 435 kts 281°
2026-04-25 09:13 44.88691 64.46152 33914 ft 434 kts 281°
2026-04-25 09:13 44.90010 64.37923 33911 ft 433 kts 281°
2026-04-25 09:14 44.91331 64.29641 33905 ft 433 kts 280°
2026-04-25 09:14 44.92646 64.21355 33906 ft 434 kts 280°
2026-04-25 09:15 44.93952 64.13092 33896 ft 431 kts 280°
2026-04-25 09:15 44.95251 64.04827 33890 ft 432 kts 279°
2026-04-25 09:16 44.96537 63.96600 33892 ft 431 kts 279°
2026-04-25 09:16 44.97823 63.88333 33884 ft 432 kts 279°
2026-04-25 09:17 44.99735 63.75973 33880 ft 430 kts 279°
2026-04-25 09:18 45.00991 63.67798 33881 ft 430 kts 279°
2026-04-25 09:18 45.02248 63.59572 33873 ft 429 kts 279°
2026-04-25 09:19 45.03501 63.51326 33882 ft 429 kts 279°
2026-04-25 09:19 45.04741 63.43129 33879 ft 428 kts 279°
2026-04-25 09:20 45.05975 63.34927 33876 ft 428 kts 278°
2026-04-25 09:20 45.07200 63.26738 33883 ft 426 kts 278°
2026-04-25 09:21 45.08417 63.18558 33885 ft 427 kts 278°
2026-04-25 09:21 45.09624 63.10410 33875 ft 423 kts 278°
2026-04-25 09:22 45.10823 63.02264 33880 ft 423 kts 278°
2026-04-25 09:22 45.12011 62.94159 33871 ft 422 kts 278°
2026-04-25 09:23 45.13191 62.86061 33876 ft 423 kts 278°
2026-04-25 09:23 45.14378 62.77882 33872 ft 423 kts 278°
2026-04-25 09:24 45.15548 62.69767 33869 ft 422 kts 278°
2026-04-25 09:24 45.16710 62.61667 33874 ft 421 kts 278°
2026-04-25 09:25 45.17866 62.53566 33870 ft 421 kts 278°
2026-04-25 09:25 45.19016 62.45481 33871 ft 420 kts 278°
2026-04-25 09:26 45.20165 62.37356 33874 ft 420 kts 278°
2026-04-25 09:26 45.21306 62.29252 33887 ft 420 kts 277°
2026-04-25 09:27 45.22430 62.21220 33884 ft 419 kts 277°
2026-04-25 09:27 45.23553 62.13154 33882 ft 418 kts 277°
2026-04-25 09:28 45.24672 62.05073 33885 ft 418 kts 277°
2026-04-25 09:28 45.25762 61.97153 33887 ft 417 kts 277°
2026-04-25 09:29 45.26846 61.89250 33889 ft 417 kts 277°
2026-04-25 09:30 45.27945 61.81163 33882 ft 416 kts 277°
2026-04-25 09:30 45.29026 61.73152 33883 ft 416 kts 276°
2026-04-25 09:31 45.29212 61.71777 33882 ft 417 kts 277°
2026-04-25 09:32 45.29557 61.69201 33882 ft 417 kts 277°
2026-04-25 09:33 45.30641 61.61114 33880 ft 416 kts 277°
2026-04-25 09:33 45.31708 61.53099 33875 ft 415 kts 277°
2026-04-25 09:34 45.32767 61.45105 33873 ft 414 kts 277°
2026-04-25 09:34 45.33825 61.37074 33873 ft 413 kts 277°
2026-04-25 09:35 45.34872 61.29071 33889 ft 413 kts 276°
2026-04-25 09:35 45.35908 61.21118 33887 ft 410 kts 276°
2026-04-25 09:36 45.36937 61.13177 33878 ft 411 kts 276°
2026-04-25 09:36 45.37964 61.05201 33884 ft 409 kts 276°
2026-04-25 09:37 45.38982 60.97242 33892 ft 410 kts 276°
2026-04-25 09:37 45.39992 60.89306 33881 ft 408 kts 276°
2026-04-25 09:38 45.40988 60.81429 33873 ft 408 kts 276°
2026-04-25 09:38 45.41964 60.73476 33876 ft 408 kts 275°
2026-04-25 09:39 45.42877 60.65548 33869 ft 408 kts 275°
2026-04-25 09:39 45.43785 60.57630 33867 ft 408 kts 275°
2026-04-25 09:40 45.45143 60.45713 33864 ft 407 kts 274°
2026-04-25 09:40 45.46040 60.37761 33868 ft 407 kts 274°
2026-04-25 09:41 45.46933 60.29817 33878 ft 406 kts 274°
2026-04-25 09:41 45.47813 60.21917 33874 ft 406 kts 274°
2026-04-25 09:42 45.48690 60.13993 33890 ft 406 kts 274°
2026-04-25 09:42 45.49562 60.06097 33872 ft 404 kts 274°
2026-04-25 09:43 45.50429 59.98180 33881 ft 405 kts 274°
2026-04-25 09:43 45.51292 59.90271 33875 ft 404 kts 274°
2026-04-25 09:44 45.52145 59.82390 33871 ft 404 kts 273°
2026-04-25 09:44 45.52992 59.74521 33865 ft 402 kts 273°
2026-04-25 09:45 45.53834 59.66639 33867 ft 404 kts 273°
2026-04-25 09:45 45.54670 59.58757 33868 ft 403 kts 274°
2026-04-25 09:46 45.55499 59.50906 33870 ft 401 kts 273°
2026-04-25 09:46 45.56326 59.43006 33873 ft 403 kts 273°
2026-04-25 09:47 45.57143 59.35154 33873 ft 403 kts 273°
2026-04-25 09:47 45.57958 59.27262 33882 ft 401 kts 272°
2026-04-25 09:48 45.58760 59.19441 33884 ft 400 kts 272°
2026-04-25 09:48 45.59527 59.11898 33884 ft 403 kts 272°
2026-04-25 09:49 45.60321 59.04068 33887 ft 400 kts 272°
2026-04-25 09:49 45.61111 58.96203 33882 ft 400 kts 273°
2026-04-25 09:50 45.61892 58.88367 33873 ft 401 kts 272°
2026-04-25 09:50 45.62667 58.80561 33882 ft 398 kts 272°
2026-04-25 09:51 45.63432 58.72772 33882 ft 397 kts 272°
2026-04-25 09:51 45.64193 58.64981 33883 ft 397 kts 272°
2026-04-25 09:52 45.64946 58.57209 33887 ft 396 kts 272°
2026-04-25 09:52 45.65664 58.49744 33882 ft 398 kts 272°
2026-04-25 09:53 45.66410 58.41941 33893 ft 394 kts 272°
2026-04-25 09:53 45.67143 58.34203 33893 ft 396 kts 271°
2026-04-25 09:54 45.67875 58.26438 33902 ft 393 kts 271°
2026-04-25 09:54 45.68597 58.18718 33907 ft 393 kts 271°
2026-04-25 09:55 45.69308 58.11044 33913 ft 393 kts 271°
2026-04-25 09:55 45.70020 58.03317 33915 ft 394 kts 271°
2026-04-25 09:56 45.70730 57.95541 33917 ft 393 kts 271°
2026-04-25 09:56 45.71424 57.87881 33913 ft 392 kts 271°
2026-04-25 09:57 45.72125 57.80104 33912 ft 393 kts 271°
2026-04-25 09:57 45.72813 57.72384 33910 ft 393 kts 271°
2026-04-25 09:58 45.72636 57.64786 33928 ft 381 kts 254°
2026-04-25 09:58 45.71075 57.57609 33911 ft 379 kts 250°
2026-04-25 09:59 45.69403 57.50510 33911 ft 378 kts 250°
2026-04-25 09:59 45.67671 57.43404 33912 ft 379 kts 250°
2026-04-25 10:00 45.65920 57.36346 33913 ft 378 kts 249°
2026-04-25 10:00 45.64149 57.29282 33929 ft 378 kts 249°
2026-04-25 10:01 45.62377 57.22255 33929 ft 378 kts 248°
2026-04-25 10:01 45.60603 57.15252 33930 ft 376 kts 249°
2026-04-25 10:02 45.58814 57.08217 33934 ft 375 kts 249°
2026-04-25 10:02 45.57045 57.01283 33941 ft 376 kts 248°
2026-04-25 10:03 45.55247 56.94259 33940 ft 376 kts 248°
2026-04-25 10:03 45.53462 56.87309 33940 ft 375 kts 249°
2026-04-25 10:04 45.51668 56.80343 33938 ft 376 kts 248°
2026-04-25 10:04 45.49871 56.73383 33939 ft 375 kts 248°
2026-04-25 10:05 45.48078 56.66458 33941 ft 374 kts 248°
2026-04-25 10:05 45.46274 56.59517 33939 ft 375 kts 248°
2026-04-25 10:06 45.44465 56.52581 33947 ft 374 kts 249°
2026-04-25 10:06 45.42661 56.45679 33944 ft 373 kts 249°
2026-04-25 10:07 45.40847 56.38757 33952 ft 372 kts 248°
2026-04-25 10:07 45.39032 56.31860 33970 ft 373 kts 248°
2026-04-25 10:08 45.37232 56.25024 33964 ft 371 kts 248°
2026-04-25 10:08 45.35410 56.18143 33962 ft 372 kts 248°
2026-04-25 10:09 45.33599 56.11314 33949 ft 371 kts 248°
2026-04-25 10:09 45.31787 56.04498 33954 ft 371 kts 248°
2026-04-25 10:10 45.29964 55.97666 33958 ft 371 kts 248°
2026-04-25 10:10 45.28133 55.90825 33951 ft 369 kts 248°
2026-04-25 10:11 45.26310 55.84028 33961 ft 371 kts 247°
2026-04-25 10:11 45.24486 55.77253 33957 ft 368 kts 248°
2026-04-25 10:12 45.22667 55.70506 33964 ft 368 kts 247°
2026-04-25 10:13 45.19922 55.60370 33958 ft 367 kts 248°
2026-04-25 10:13 45.18095 55.53650 33955 ft 367 kts 247°
2026-04-25 10:14 45.16257 55.46904 33952 ft 369 kts 247°
2026-04-25 10:14 45.14410 55.40144 33959 ft 367 kts 248°
2026-04-25 10:15 45.12575 55.33445 33966 ft 366 kts 247°
2026-04-25 10:15 45.10733 55.26745 33975 ft 367 kts 246°
2026-04-25 10:16 45.08812 55.20098 33966 ft 364 kts 241°
2026-04-25 10:16 45.05660 55.14594 33980 ft 366 kts 227°
2026-04-25 10:17 45.01958 55.09589 33983 ft 367 kts 227°
2026-04-25 10:17 44.98248 55.04674 33972 ft 367 kts 227°
2026-04-25 10:18 44.94515 54.99791 33976 ft 367 kts 227°
2026-04-25 10:18 44.90764 54.94914 33986 ft 369 kts 226°
2026-04-25 10:19 44.87009 54.90052 33993 ft 368 kts 226°
2026-04-25 10:19 44.83243 54.85197 33991 ft 367 kts 227°
2026-04-25 10:20 44.79487 54.80360 33979 ft 369 kts 227°
2026-04-25 10:20 44.75685 54.75476 33970 ft 369 kts 227°
2026-04-25 10:21 44.71909 54.70633 33987 ft 367 kts 227°
2026-04-25 10:21 44.68143 54.65818 33981 ft 369 kts 227°
2026-04-25 10:22 44.64739 54.60489 33986 ft 365 kts 237°
2026-04-25 10:22 44.61840 54.54690 33988 ft 365 kts 236°
2026-04-25 10:23 44.58949 54.48906 33988 ft 363 kts 236°
2026-04-25 10:23 44.56056 54.43110 34014 ft 362 kts 236°
2026-04-25 10:24 44.53178 54.37355 33985 ft 363 kts 236°
2026-04-25 10:24 44.50291 54.31586 34024 ft 362 kts 235°
2026-04-25 10:25 44.47411 54.25838 34010 ft 361 kts 235°
2026-04-25 10:25 44.44516 54.20073 34009 ft 361 kts 236°
2026-04-25 10:26 44.41631 54.14337 33992 ft 362 kts 236°
2026-04-25 10:26 44.38752 54.08631 34007 ft 360 kts 236°
2026-04-25 10:27 44.35871 54.02922 34017 ft 361 kts 235°
2026-04-25 10:27 44.32978 53.97209 34019 ft 362 kts 236°
2026-04-25 10:28 44.30082 53.91494 34011 ft 360 kts 236°
2026-04-25 10:28 44.27185 53.85791 34017 ft 361 kts 235°
2026-04-25 10:29 44.24281 53.80087 34018 ft 361 kts 235°
2026-04-25 10:29 44.21369 53.74383 34010 ft 363 kts 236°
2026-04-25 10:30 44.18470 53.68706 34017 ft 362 kts 236°
2026-04-25 10:30 44.15554 53.63012 34012 ft 361 kts 236°
2026-04-25 10:31 44.12624 53.57304 34012 ft 362 kts 235°
2026-04-25 10:31 44.09710 53.51636 34016 ft 360 kts 236°
2026-04-25 10:32 44.06804 53.45991 34019 ft 362 kts 235°
2026-04-25 10:32 44.03900 53.40364 34013 ft 359 kts 236°
2026-04-25 10:33 44.00978 53.34711 33995 ft 360 kts 234°
2026-04-25 10:33 43.98058 53.29077 34048 ft 360 kts 234°
2026-04-25 10:34 43.95148 53.23473 34034 ft 358 kts 235°
2026-04-25 10:34 43.92234 53.17868 34030 ft 360 kts 234°
2026-04-25 10:35 43.89326 53.12288 34037 ft 360 kts 235°
2026-04-25 10:35 43.86383 53.06649 34048 ft 361 kts 234°
2026-04-25 10:36 43.83455 53.01057 34047 ft 358 kts 235°
2026-04-25 10:36 43.80541 52.95501 34036 ft 359 kts 235°
2026-04-25 10:37 43.77595 52.89889 34041 ft 363 kts 234°
2026-04-25 10:37 43.74639 52.84279 34031 ft 361 kts 234°
2026-04-25 10:38 43.71696 52.78694 34048 ft 360 kts 234°
2026-04-25 10:38 43.68746 52.73116 34034 ft 361 kts 234°
2026-04-25 10:39 43.65794 52.67538 34036 ft 361 kts 234°
2026-04-25 10:39 43.62823 52.61956 34034 ft 362 kts 234°
2026-04-25 10:40 43.59850 52.56382 34026 ft 361 kts 234°
2026-04-25 10:40 43.56876 52.50819 34037 ft 363 kts 234°
2026-04-25 10:41 43.53886 52.45238 34034 ft 362 kts 235°
2026-04-25 10:41 43.50901 52.39673 34036 ft 364 kts 234°
2026-04-25 10:42 43.47903 52.34096 34045 ft 362 kts 234°
2026-04-25 10:42 43.44905 52.28528 34041 ft 362 kts 233°
2026-04-25 10:43 43.41913 52.22982 34076 ft 364 kts 233°
2026-04-25 10:43 43.38909 52.17426 34048 ft 361 kts 233°
2026-04-25 10:44 43.35910 52.11890 34065 ft 365 kts 234°
2026-04-25 10:44 43.32886 52.06317 34056 ft 363 kts 234°
2026-04-25 10:45 43.29877 52.00779 34056 ft 363 kts 234°
2026-04-25 10:45 43.26844 51.95213 34077 ft 368 kts 234°
2026-04-25 10:46 43.23803 51.89638 34044 ft 364 kts 233°
2026-04-25 10:46 43.20760 51.84074 34045 ft 366 kts 233°
2026-04-25 10:47 43.17713 51.78512 34044 ft 365 kts 234°
2026-04-25 10:47 43.14665 51.72959 34053 ft 366 kts 234°
2026-04-25 10:48 43.11617 51.67413 34026 ft 365 kts 234°
2026-04-25 10:48 43.08559 51.61866 34061 ft 368 kts 234°
2026-04-25 10:49 43.05504 51.56328 34064 ft 367 kts 234°
2026-04-25 10:49 43.02450 51.50806 34041 ft 363 kts 234°
2026-04-25 10:50 42.99404 51.45306 34044 ft 365 kts 234°
2026-04-25 10:50 42.96341 51.39786 34047 ft 366 kts 234°
2026-04-25 10:51 42.93273 51.34268 34054 ft 367 kts 233°
2026-04-25 10:51 42.90173 51.28705 34071 ft 368 kts 233°
2026-04-25 10:52 42.87094 51.23187 34080 ft 368 kts 233°
2026-04-25 10:52 42.83996 51.17648 34100 ft 367 kts 233°
2026-04-25 10:53 42.80900 51.12122 34100 ft 369 kts 233°
2026-04-25 10:53 42.77800 51.06598 34100 ft 369 kts 234°
2026-04-25 10:54 42.74673 51.01038 34086 ft 369 kts 233°
2026-04-25 10:54 42.71576 50.95535 34100 ft 371 kts 233°
2026-04-25 10:55 42.68429 50.89964 34095 ft 371 kts 233°
2026-04-25 10:55 42.65295 50.84421 34091 ft 370 kts 233°
2026-04-25 10:56 42.62153 50.78875 34103 ft 371 kts 234°
2026-04-25 10:56 42.59003 50.73324 34094 ft 372 kts 233°
2026-04-25 10:57 42.55867 50.67810 34091 ft 371 kts 234°
2026-04-25 10:57 42.52709 50.62265 34107 ft 371 kts 234°
2026-04-25 10:58 42.49571 50.56767 34095 ft 372 kts 234°
2026-04-25 10:58 42.46396 50.51214 34107 ft 373 kts 233°
2026-04-25 10:59 42.43225 50.45637 34102 ft 374 kts 235°
2026-04-25 10:59 42.40223 50.39933 34087 ft 374 kts 236°
2026-04-25 11:00 42.37216 50.34237 34107 ft 375 kts 236°
2026-04-25 11:00 42.34192 50.28518 34116 ft 377 kts 235°
2026-04-25 11:01 42.31144 50.22767 34117 ft 376 kts 235°
2026-04-25 11:01 42.28113 50.17059 34116 ft 375 kts 236°
2026-04-25 11:02 42.25086 50.11369 34116 ft 375 kts 236°
2026-04-25 11:02 42.22062 50.05696 34109 ft 374 kts 236°
2026-04-25 11:03 42.19019 49.99996 34103 ft 376 kts 236°
2026-04-25 11:03 42.15966 49.94291 34118 ft 376 kts 235°
2026-04-25 11:04 42.12910 49.88591 34097 ft 375 kts 235°
2026-04-25 11:04 42.09860 49.82910 34112 ft 376 kts 235°
2026-04-25 11:05 42.06794 49.77216 34118 ft 378 kts 236°
2026-04-25 11:05 42.03725 49.71522 34119 ft 376 kts 235°
2026-04-25 11:06 42.00640 49.65810 34101 ft 377 kts 236°
2026-04-25 11:06 41.97562 49.60127 34108 ft 377 kts 236°
2026-04-25 11:07 41.94484 49.54447 34114 ft 381 kts 236°
2026-04-25 11:07 41.91354 49.48685 34100 ft 380 kts 236°
2026-04-25 11:08 41.88239 49.42963 34114 ft 382 kts 236°
2026-04-25 11:08 41.85117 49.37236 34121 ft 381 kts 236°
2026-04-25 11:09 41.81966 49.31470 34138 ft 384 kts 236°
2026-04-25 11:09 41.78955 49.25573 34128 ft 381 kts 238°
2026-04-25 11:10 41.76042 49.19702 34143 ft 382 kts 238°
2026-04-25 11:10 41.73096 49.13784 34132 ft 382 kts 238°
2026-04-25 11:11 41.70149 49.07875 34129 ft 384 kts 238°
2026-04-25 11:11 41.67178 49.01929 34145 ft 384 kts 238°
2026-04-25 11:12 41.64232 48.96046 34147 ft 384 kts 238°
2026-04-25 11:12 41.61253 48.90110 34134 ft 385 kts 238°
2026-04-25 11:13 41.58277 48.84189 34140 ft 386 kts 238°
2026-04-25 11:13 41.55300 48.78280 34119 ft 385 kts 238°
2026-04-25 11:14 41.52290 48.72375 34131 ft 387 kts 237°
2026-04-25 11:14 41.49071 48.66607 34119 ft 388 kts 236°
2026-04-25 11:15 41.45870 48.60875 34119 ft 386 kts 237°
2026-04-25 11:15 41.42660 48.55132 34099 ft 388 kts 237°
2026-04-25 11:16 41.37925 48.46437 34096 ft 386 kts 238°
2026-04-25 11:16 41.34790 48.40675 34080 ft 388 kts 237°
2026-04-25 11:17 41.31626 48.34876 34079 ft 387 kts 237°
2026-04-25 11:17 41.28458 48.29078 34092 ft 387 kts 237°
2026-04-25 11:18 41.25319 48.23349 34076 ft 385 kts 237°
2026-04-25 11:18 41.22157 48.17582 34105 ft 388 kts 238°
2026-04-25 11:19 41.18982 48.11807 34110 ft 386 kts 237°
2026-04-25 11:19 41.15837 48.06095 34056 ft 386 kts 237°
2026-04-25 11:20 41.12662 48.00322 34068 ft 386 kts 239°
2026-04-25 11:20 41.10519 47.93959 34095 ft 382 kts 256°
2026-04-25 11:21 41.09264 47.87096 34067 ft 382 kts 256°
2026-04-25 11:21 41.08031 47.80260 34090 ft 383 kts 257°
2026-04-25 11:22 41.07012 47.74579 34089 ft 383 kts 257°
2026-04-25 11:22 41.05579 47.66563 34083 ft 387 kts 256°
2026-04-25 11:23 41.04340 47.59639 34064 ft 388 kts 257°
2026-04-25 11:23 41.03093 47.52678 34083 ft 390 kts 256°
2026-04-25 11:24 41.01838 47.45712 34049 ft 391 kts 257°
2026-04-25 11:24 41.00581 47.38747 34064 ft 391 kts 256°
2026-04-25 11:25 40.99300 47.31757 34080 ft 395 kts 255°
2026-04-25 11:25 40.97821 47.24764 34055 ft 395 kts 255°
2026-04-25 11:26 40.96427 47.17732 34048 ft 398 kts 256°
2026-04-25 11:26 40.95079 47.10666 34046 ft 397 kts 256°
2026-04-25 11:27 40.93750 47.03585 34045 ft 400 kts 257°
2026-04-25 11:27 40.92642 46.97642 34036 ft 401 kts 257°
2026-04-25 11:28 40.91132 46.89308 34029 ft 400 kts 257°
2026-04-25 11:28 40.89859 46.82166 34039 ft 402 kts 261°
2026-04-25 11:29 40.89151 46.74820 34042 ft 400 kts 262°
2026-04-25 11:29 40.88461 46.67548 34053 ft 401 kts 263°
2026-04-25 11:30 40.87764 46.60269 34049 ft 403 kts 262°
2026-04-25 11:30 40.87020 46.52950 34059 ft 402 kts 262°
2026-04-25 11:31 40.86298 46.45643 34059 ft 402 kts 263°
2026-04-25 11:31 40.85564 46.38383 34070 ft 402 kts 262°
2026-04-25 11:32 40.84808 46.31009 34087 ft 405 kts 262°
2026-04-25 11:32 40.84085 46.23691 34085 ft 403 kts 263°
2026-04-25 11:33 40.83426 46.16342 34090 ft 405 kts 263°
2026-04-25 11:33 40.82745 46.09021 34095 ft 404 kts 263°
2026-04-25 11:34 40.82030 46.01655 34111 ft 405 kts 262°
2026-04-25 11:34 40.81300 45.94312 34110 ft 405 kts 263°
2026-04-25 11:35 40.80564 45.86994 34107 ft 406 kts 262°
2026-04-25 11:35 40.79812 45.79591 34122 ft 407 kts 262°
2026-04-25 11:36 40.79055 45.72210 34114 ft 409 kts 262°
2026-04-25 11:36 40.78288 45.64766 34128 ft 412 kts 263°
2026-04-25 11:37 40.77513 45.57304 34114 ft 412 kts 262°
2026-04-25 11:37 40.76865 45.49810 34116 ft 413 kts 269°
2026-04-25 11:38 40.77161 45.42254 34126 ft 414 kts 272°
2026-04-25 11:38 40.77496 45.34696 34118 ft 417 kts 272°
2026-04-25 11:39 40.77839 45.27024 34124 ft 418 kts 272°
2026-04-25 11:39 40.78126 45.19430 34115 ft 416 kts 272°
2026-04-25 11:40 40.78437 45.11766 34128 ft 420 kts 272°
2026-04-25 11:40 40.78757 45.04139 34136 ft 419 kts 272°
2026-04-25 11:41 40.79079 44.96492 34139 ft 421 kts 272°
2026-04-25 11:41 40.79402 44.88759 34145 ft 422 kts 272°
2026-04-25 11:42 40.79720 44.81069 34140 ft 422 kts 272°
2026-04-25 11:42 40.79979 44.73379 34123 ft 422 kts 272°
2026-04-25 11:43 40.80263 44.65678 34127 ft 422 kts 273°
2026-04-25 11:43 40.80558 44.57966 34124 ft 424 kts 273°
2026-04-25 11:44 40.80854 44.50207 34122 ft 424 kts 273°
2026-04-25 11:44 40.81148 44.42456 34124 ft 424 kts 273°
2026-04-25 11:45 40.81439 44.34681 34127 ft 426 kts 272°
2026-04-25 11:45 40.81725 44.26905 34137 ft 426 kts 272°
2026-04-25 11:46 40.82006 44.19118 34138 ft 426 kts 272°
2026-04-25 11:46 40.82286 44.11356 34163 ft 426 kts 273°
2026-04-25 11:47 40.82668 44.03535 34172 ft 428 kts 273°
2026-04-25 11:47 40.82981 43.95689 34175 ft 428 kts 273°
2026-04-25 11:48 40.83260 43.87906 34180 ft 428 kts 273°
2026-04-25 11:48 40.83528 43.80038 34185 ft 432 kts 273°
2026-04-25 11:49 40.83544 43.72161 34193 ft 431 kts 264°
2026-04-25 11:49 40.81769 43.64613 34200 ft 438 kts 245°
2026-04-25 11:50 40.78594 43.57725 34183 ft 439 kts 242°
2026-04-25 11:50 40.75355 43.50956 34182 ft 437 kts 241°
2026-04-25 11:51 40.73721 43.47569 34315 ft 438 kts 241°
2026-04-25 11:51 40.72107 43.44235 34518 ft 437 kts 241°
2026-04-25 11:51 40.70447 43.40844 34785 ft 435 kts 241°
2026-04-25 11:51 40.68832 43.37553 35015 ft 433 kts 240°
2026-04-25 11:52 40.67188 43.34197 35192 ft 432 kts 240°
2026-04-25 11:52 40.65583 43.30917 35334 ft 432 kts 240°
2026-04-25 11:52 40.63952 43.27586 35472 ft 432 kts 240°
2026-04-25 11:52 40.62334 43.24286 35726 ft 429 kts 240°
2026-04-25 11:53 40.60716 43.20987 35903 ft 429 kts 240°
2026-04-25 11:53 40.59103 43.17701 36082 ft 428 kts 240°
2026-04-25 11:53 40.57491 43.14417 36217 ft 423 kts 240°
2026-04-25 11:53 40.55935 43.11183 36193 ft 416 kts 244°
2026-04-25 11:54 40.53635 43.04262 36206 ft 418 kts 250°
2026-04-25 11:55 40.50341 42.93619 36195 ft 421 kts 250°
2026-04-25 11:55 40.48151 42.86517 36189 ft 419 kts 250°
2026-04-25 11:56 40.45970 42.79450 36191 ft 419 kts 250°
2026-04-25 11:56 40.43827 42.72342 36182 ft 420 kts 250°
2026-04-25 11:57 40.41695 42.65260 36178 ft 419 kts 250°
2026-04-25 11:57 40.39538 42.58211 36168 ft 421 kts 250°
2026-04-25 11:58 40.37347 42.51112 36162 ft 420 kts 250°
2026-04-25 11:58 40.35135 42.44007 36160 ft 421 kts 250°
2026-04-25 11:59 40.32925 42.36940 36164 ft 420 kts 250°
2026-04-25 11:59 40.30722 42.29915 36174 ft 420 kts 249°
2026-04-25 12:00 40.27393 42.19334 36169 ft 421 kts 249°
2026-04-25 12:01 40.24055 42.08765 36157 ft 420 kts 249°
2026-04-25 12:01 40.21793 42.01737 36152 ft 420 kts 249°
2026-04-25 12:02 40.18409 41.91161 36150 ft 422 kts 249°
2026-04-25 12:02 40.16169 41.84153 36154 ft 419 kts 249°
2026-04-25 12:03 40.13925 41.77142 36157 ft 418 kts 249°
2026-04-25 12:03 40.11686 41.70161 36161 ft 417 kts 249°
2026-04-25 12:04 40.09428 41.63195 36162 ft 420 kts 248°
2026-04-25 12:04 40.07152 41.56195 36162 ft 418 kts 248°
2026-04-25 12:05 40.04884 41.49234 36162 ft 418 kts 248°
2026-04-25 12:05 40.02616 41.42294 36162 ft 417 kts 248°
2026-04-25 12:06 40.00347 41.35363 36163 ft 419 kts 248°
2026-04-25 12:06 39.98061 41.28404 36174 ft 417 kts 248°
2026-04-25 12:07 39.96011 41.21357 36195 ft 418 kts 257°
2026-04-25 12:07 39.95561 41.13828 36190 ft 420 kts 268°
2026-04-25 12:08 39.95521 41.06229 36181 ft 420 kts 268°
2026-04-25 12:08 39.95481 40.98640 36184 ft 422 kts 268°
2026-04-25 12:09 39.95421 40.90992 36163 ft 422 kts 268°
2026-04-25 12:09 39.95388 40.83396 36162 ft 423 kts 268°
2026-04-25 12:10 39.95362 40.75711 36161 ft 424 kts 268°
2026-04-25 12:10 39.95337 40.68049 36157 ft 423 kts 269°
2026-04-25 12:11 39.95310 40.60430 36159 ft 423 kts 268°
2026-04-25 12:11 39.95280 40.52781 36160 ft 425 kts 268°
2026-04-25 12:12 39.95251 40.46409 36158 ft 423 kts 268°
2026-04-25 12:12 39.95204 40.37501 36157 ft 424 kts 268°
2026-04-25 12:13 39.95159 40.29848 36166 ft 424 kts 268°
2026-04-25 12:13 39.95109 40.22156 36164 ft 425 kts 268°
2026-04-25 12:14 39.95054 40.14475 36161 ft 425 kts 268°
2026-04-25 12:14 39.94993 40.06841 36163 ft 426 kts 268°
2026-04-25 12:15 39.94960 39.99119 36159 ft 427 kts 268°
2026-04-25 12:15 39.94925 39.91438 36158 ft 427 kts 268°
2026-04-25 12:16 39.94860 39.83678 36151 ft 428 kts 268°
2026-04-25 12:16 39.94780 39.75992 36161 ft 428 kts 268°
2026-04-25 12:17 39.94693 39.68208 36165 ft 428 kts 268°
2026-04-25 12:17 39.94652 39.60493 36163 ft 427 kts 268°
2026-04-25 12:18 39.94577 39.52784 36171 ft 428 kts 268°
2026-04-25 12:18 39.94483 39.45038 36163 ft 429 kts 268°
2026-04-25 12:19 39.94323 39.33416 36158 ft 429 kts 267°
2026-04-25 12:20 39.94156 39.25661 36153 ft 430 kts 267°
2026-04-25 12:20 39.94011 39.17900 36147 ft 430 kts 267°
2026-04-25 12:21 39.93877 39.10184 36153 ft 429 kts 267°
2026-04-25 12:21 39.93754 39.02400 36157 ft 431 kts 267°
2026-04-25 12:22 39.93587 38.94647 36162 ft 430 kts 267°
2026-04-25 12:22 39.93380 38.86883 36167 ft 430 kts 264°
2026-04-25 12:23 39.92873 38.79127 36172 ft 430 kts 263°
2026-04-25 12:23 39.92323 38.71405 36176 ft 432 kts 264°
2026-04-25 12:24 39.91788 38.63673 36169 ft 431 kts 264°
2026-04-25 12:24 39.91252 38.55890 36170 ft 432 kts 264°
2026-04-25 12:25 39.90718 38.48155 36168 ft 431 kts 264°
2026-04-25 12:25 39.90178 38.40402 36168 ft 432 kts 264°
2026-04-25 12:26 39.89632 38.32637 36167 ft 431 kts 263°
2026-04-25 12:26 39.89083 38.24896 36171 ft 432 kts 264°
2026-04-25 12:27 39.88524 38.17078 36166 ft 432 kts 263°
2026-04-25 12:27 39.87964 38.09331 36168 ft 432 kts 264°
2026-04-25 12:28 39.87396 38.01541 36162 ft 432 kts 264°
2026-04-25 12:28 39.86831 37.93818 36168 ft 433 kts 264°
2026-04-25 12:29 39.86258 37.85990 36161 ft 435 kts 263°
2026-04-25 12:29 39.85682 37.78207 36167 ft 434 kts 263°
2026-04-25 12:30 39.85104 37.70458 36177 ft 434 kts 264°
2026-04-25 12:30 39.84513 37.62619 36168 ft 435 kts 264°
2026-04-25 12:31 39.83924 37.54857 36165 ft 434 kts 264°
2026-04-25 12:31 39.83326 37.47050 36156 ft 436 kts 263°
2026-04-25 12:32 39.82716 37.39218 36157 ft 436 kts 263°
2026-04-25 12:32 39.82101 37.31440 36162 ft 436 kts 263°
2026-04-25 12:33 39.81476 37.23594 36156 ft 437 kts 263°
2026-04-25 12:33 39.80846 37.15749 36148 ft 437 kts 263°
2026-04-25 12:34 39.80213 37.07944 36145 ft 435 kts 263°
2026-04-25 12:34 39.79572 37.00112 36132 ft 437 kts 263°
2026-04-25 12:35 39.78527 36.92388 36140 ft 435 kts 251°
2026-04-25 12:35 39.75650 36.85521 36139 ft 438 kts 232°
2026-04-25 12:36 39.71617 36.79589 36126 ft 439 kts 229°
2026-04-25 12:36 39.67519 36.73801 36131 ft 438 kts 229°
2026-04-25 12:37 39.63362 36.68031 36126 ft 439 kts 228°
2026-04-25 12:37 39.59179 36.62273 36132 ft 439 kts 228°
2026-04-25 12:38 39.55000 36.56547 36133 ft 438 kts 228°
2026-04-25 12:38 39.50820 36.50837 36127 ft 440 kts 228°
2026-04-25 12:39 39.46574 36.45063 36122 ft 446 kts 228°
2026-04-25 12:39 39.42315 36.39274 36121 ft 444 kts 228°
2026-04-25 12:40 39.38057 36.33501 36124 ft 444 kts 227°
2026-04-25 12:40 39.33787 36.27723 36129 ft 444 kts 227°
2026-04-25 12:41 39.29535 36.21980 36125 ft 444 kts 227°
2026-04-25 12:41 39.25250 36.16204 36124 ft 444 kts 227°
2026-04-25 12:42 39.21005 36.10493 36114 ft 443 kts 227°
2026-04-25 12:42 39.16754 36.04783 36114 ft 444 kts 227°
2026-04-25 12:43 39.12367 35.99150 36114 ft 445 kts 225°
2026-04-25 12:43 39.05706 35.90850 36113 ft 444 kts 225°
2026-04-25 12:44 39.01268 35.85329 36108 ft 444 kts 225°
2026-04-25 12:45 38.94637 35.77107 36108 ft 443 kts 225°
2026-04-25 12:45 38.88098 35.68704 36108 ft 444 kts 227°
2026-04-25 12:46 38.83751 35.63102 36104 ft 444 kts 226°
2026-04-25 12:46 38.79400 35.57505 36098 ft 444 kts 226°
2026-04-25 12:47 38.75029 35.51884 36079 ft 445 kts 226°
2026-04-25 12:47 38.70688 35.46296 36085 ft 445 kts 226°
2026-04-25 12:48 38.66307 35.40697 36096 ft 445 kts 226°
2026-04-25 12:48 38.61941 35.35126 36101 ft 444 kts 226°
2026-04-25 12:49 38.57594 35.29571 36111 ft 445 kts 226°
2026-04-25 12:49 38.53195 35.23972 36107 ft 445 kts 225°
2026-04-25 12:50 38.48522 35.18799 36105 ft 447 kts 221°
2026-04-25 12:50 38.43780 35.13683 36106 ft 447 kts 221°
2026-04-25 12:51 38.39039 35.08591 36113 ft 447 kts 221°
2026-04-25 12:51 38.34423 35.03304 36111 ft 446 kts 225°
2026-04-25 12:52 38.29914 34.97876 36108 ft 447 kts 224°
2026-04-25 12:52 38.25424 34.92481 36116 ft 448 kts 224°
2026-04-25 12:53 38.20906 34.87043 36109 ft 448 kts 224°
2026-04-25 12:53 38.18647 34.84329 36447 ft 443 kts 224°
2026-04-25 12:53 38.16436 34.81675 36254 ft 431 kts 224°
2026-04-25 12:54 38.14301 34.79114 36097 ft 413 kts 225°
2026-04-25 12:54 38.12240 34.76643 36113 ft 410 kts 224°
2026-04-25 12:54 38.08045 34.71632 36116 ft 418 kts 224°
2026-04-25 12:55 38.04491 34.67399 36113 ft 425 kts 224°
2026-04-25 12:55 37.99437 34.61379 36101 ft 435 kts 224°
2026-04-25 12:56 37.95007 34.56108 36086 ft 437 kts 224°
2026-04-25 12:56 37.90581 34.50848 36094 ft 435 kts 224°
2026-04-25 12:57 37.88401 34.48258 35772 ft 431 kts 224°
2026-04-25 12:57 37.86225 34.45668 35068 ft 436 kts 224°
2026-04-25 12:57 37.84036 34.43066 34704 ft 423 kts 224°
2026-04-25 12:57 37.81939 34.40577 34810 ft 410 kts 224°
2026-04-25 12:58 37.79853 34.38100 35027 ft 411 kts 224°
2026-04-25 12:58 37.77764 34.35623 35085 ft 414 kts 224°
2026-04-25 12:58 37.73523 34.30602 35079 ft 425 kts 224°
2026-04-25 12:59 37.69165 34.25450 35085 ft 435 kts 224°
2026-04-25 12:59 37.64692 34.20174 35088 ft 445 kts 224°
2026-04-25 13:00 37.60906 34.15714 35089 ft 450 kts 224°
2026-04-25 13:00 37.55588 34.09460 35087 ft 447 kts 224°
2026-04-25 13:01 37.51049 34.04133 35088 ft 449 kts 223°
2026-04-25 13:01 37.46473 33.98770 35093 ft 449 kts 223°
2026-04-25 13:02 37.41920 33.93449 35102 ft 449 kts 223°
2026-04-25 13:02 37.37353 33.88127 35092 ft 450 kts 223°
2026-04-25 13:03 37.32764 33.82790 35110 ft 449 kts 223°
2026-04-25 13:03 37.28192 33.77480 35100 ft 450 kts 223°
2026-04-25 13:04 37.23607 33.72165 35109 ft 449 kts 223°
2026-04-25 13:04 37.19026 33.66864 35102 ft 448 kts 223°
2026-04-25 13:05 37.14447 33.61574 35107 ft 450 kts 223°
2026-04-25 13:05 37.09833 33.56253 35108 ft 449 kts 223°
2026-04-25 13:06 37.05244 33.50969 35102 ft 449 kts 223°
2026-04-25 13:06 37.00671 33.45714 35104 ft 449 kts 223°
2026-04-25 13:07 36.96076 33.40442 35105 ft 449 kts 223°
2026-04-25 13:07 36.91521 33.35123 35090 ft 449 kts 228°
2026-04-25 13:08 36.88082 33.28605 35084 ft 451 kts 246°
2026-04-25 13:08 36.86575 33.21061 35080 ft 454 kts 264°
2026-04-25 13:09 36.86680 33.13158 35068 ft 457 kts 270°
2026-04-25 13:09 36.86910 33.05257 35081 ft 456 kts 270°
2026-04-25 13:10 36.87150 32.97377 35383 ft 457 kts 270°
2026-04-25 13:10 36.87264 32.93647 35536 ft 457 kts 270°
2026-04-25 13:10 36.87382 32.89727 35706 ft 456 kts 270°
2026-04-25 13:11 36.87502 32.85768 35860 ft 456 kts 270°
2026-04-25 13:11 36.87620 32.81816 36040 ft 455 kts 270°
2026-04-25 13:11 36.87852 32.73932 36083 ft 456 kts 270°
2026-04-25 13:12 36.88079 32.66089 36091 ft 447 kts 270°
2026-04-25 13:12 36.88189 32.62285 36041 ft 432 kts 270°
2026-04-25 13:12 36.88258 32.59837 35756 ft 430 kts 270°
2026-04-25 13:13 36.88395 32.54839 34456 ft 435 kts 270°
2026-04-25 13:13 36.88498 32.51091 33346 ft 438 kts 270°
2026-04-25 13:13 36.88601 32.47295 32000 ft 445 kts 269°
2026-04-25 13:13 36.88737 32.43424 30817 ft 452 kts 270°
2026-04-25 13:14 36.88868 32.39587 30019 ft 446 kts 270°
2026-04-25 13:14 36.88988 32.35728 29353 ft 445 kts 270°
2026-04-25 13:14 36.89099 32.31833 28693 ft 449 kts 269°
2026-04-25 13:14 36.89204 32.27983 27983 ft 449 kts 269°
2026-04-25 13:15 36.89308 32.24105 27248 ft 443 kts 269°
2026-04-25 13:15 36.89408 32.20323 26651 ft 433 kts 269°
2026-04-25 13:15 36.89502 32.16605 26236 ft 426 kts 269°
2026-04-25 13:15 36.89594 32.12909 25832 ft 431 kts 269°
2026-04-25 13:16 36.89685 32.09146 25438 ft 430 kts 269°
2026-04-25 13:16 36.89775 32.05552 25426 ft 411 kts 269°
2026-04-25 13:16 36.89864 32.02054 25405 ft 393 kts 271°
2026-04-25 13:16 36.90310 31.98756 25397 ft 378 kts 285°
2026-04-25 13:17 36.91272 31.95769 25198 ft 365 kts 293°
2026-04-25 13:17 36.92436 31.93032 24809 ft 361 kts 297°
2026-04-25 13:17 36.93729 31.90356 24402 ft 361 kts 299°
2026-04-25 13:17 36.95093 31.87715 24000 ft 362 kts 300°
2026-04-25 13:18 36.96498 31.85099 23592 ft 361 kts 301°
2026-04-25 13:18 36.97906 31.82533 23197 ft 358 kts 302°
2026-04-25 13:18 36.99317 31.79994 22806 ft 355 kts 302°
2026-04-25 13:18 37.00704 31.77473 22421 ft 351 kts 299°
2026-04-25 13:19 37.02024 31.74885 22023 ft 349 kts 300°
2026-04-25 13:19 37.03372 31.72379 21672 ft 347 kts 301°
2026-04-25 13:19 37.04717 31.69925 21316 ft 345 kts 302°
2026-04-25 13:19 37.05633 31.68269 21077 ft 344 kts 302°
2026-04-25 13:20 37.07448 31.65012 20613 ft 340 kts 302°
2026-04-25 13:20 37.08787 31.62618 20269 ft 338 kts 302°
2026-04-25 13:20 37.10123 31.60231 19928 ft 335 kts 302°
2026-04-25 13:20 37.11453 31.57857 19591 ft 333 kts 302°
2026-04-25 13:21 37.12781 31.55487 19246 ft 331 kts 302°
2026-04-25 13:21 37.14098 31.53134 18915 ft 328 kts 302°
2026-04-25 13:21 37.15405 31.50800 18581 ft 326 kts 302°
2026-04-25 13:21 37.16697 31.48488 18245 ft 324 kts 302°
2026-04-25 13:22 37.17982 31.46190 17905 ft 321 kts 302°
2026-04-25 13:22 37.19261 31.43899 17578 ft 320 kts 302°
2026-04-25 13:22 37.20534 31.41618 17252 ft 320 kts 302°
2026-04-25 13:23 37.23064 31.37081 16601 ft 317 kts 303°
2026-04-25 13:23 37.24329 31.34820 16266 ft 317 kts 303°
2026-04-25 13:23 37.25633 31.32593 15953 ft 315 kts 303°
2026-04-25 13:23 37.26904 31.30370 15637 ft 314 kts 303°
2026-04-25 13:24 37.28146 31.28168 15309 ft 313 kts 303°
2026-04-25 13:24 37.29408 31.25916 14984 ft 311 kts 303°
2026-04-25 13:24 37.30644 31.23700 14671 ft 310 kts 303°
2026-04-25 13:24 37.31859 31.21516 14380 ft 309 kts 302°
2026-04-25 13:25 37.33087 31.19305 14089 ft 308 kts 302°
2026-04-25 13:25 37.34306 31.17106 13771 ft 307 kts 303°
2026-04-25 13:25 37.35567 31.14927 13444 ft 305 kts 304°
2026-04-25 13:25 37.36786 31.12802 13154 ft 304 kts 303°
2026-04-25 13:26 37.38002 31.10642 12855 ft 303 kts 303°
2026-04-25 13:26 37.39208 31.08482 12543 ft 302 kts 303°
2026-04-25 13:26 37.40405 31.06326 12230 ft 299 kts 303°
2026-04-25 13:26 37.41597 31.04174 11923 ft 298 kts 303°
2026-04-25 13:27 37.42738 31.02008 11628 ft 295 kts 295°
2026-04-25 13:27 37.43319 30.99559 11340 ft 294 kts 277°
2026-04-25 13:27 37.43544 30.97023 10896 ft 296 kts 268°
2026-04-25 13:27 37.43145 30.94547 10478 ft 289 kts 243°
2026-04-25 13:28 37.41951 30.92557 9959 ft 286 kts 218°
2026-04-25 13:28 37.40857 30.91652 9629 ft 285 kts 208°
2026-04-25 13:28 37.38473 30.90209 8965 ft 283 kts 204°
2026-04-25 13:28 37.36656 30.89254 8475 ft 282 kts 201°
2026-04-25 13:29 37.34852 30.88383 7992 ft 281 kts 200°
2026-04-25 13:29 37.33011 30.87538 7495 ft 281 kts 199°
2026-04-25 13:29 37.31175 30.86726 7081 ft 276 kts 197°
2026-04-25 13:30 37.27420 30.85817 6111 ft 275 kts 189°
2026-04-25 13:30 37.25540 30.85408 5639 ft 274 kts 189°
2026-04-25 13:30 37.23709 30.85008 5452 ft 262 kts 189°
2026-04-25 13:31 37.20248 30.84033 4915 ft 247 kts 192°
2026-04-25 13:31 37.18600 30.83600 4732 ft 237 kts 190°
2026-04-25 13:31 37.17003 30.83240 4536 ft 229 kts 189°
2026-04-25 13:31 37.15439 30.82927 4294 ft 223 kts 188°
2026-04-25 13:32 37.13929 30.82654 4139 ft 214 kts 187°
2026-04-25 13:32 37.12491 30.82413 3965 ft 205 kts 186°
2026-04-25 13:32 37.11068 30.82189 3660 ft 202 kts 186°
2026-04-25 13:32 37.09714 30.81984 3535 ft 189 kts 186°
2026-04-25 13:33 37.08467 30.81801 3403 ft 176 kts 185°
2026-04-25 13:33 37.07241 30.81627 3184 ft 178 kts 185°
2026-04-25 13:33 37.06020 30.81454 3013 ft 176 kts 185°
2026-04-25 13:33 37.05193 30.81339 2850 ft 177 kts 185°
2026-04-25 13:34 37.03564 30.81115 2528 ft 175 kts 186°
2026-04-25 13:34 37.02375 30.80951 2279 ft 168 kts 186°
2026-04-25 13:34 37.01241 30.80795 2048 ft 160 kts 185°
2026-04-25 13:34 37.00183 30.80650 1822 ft 144 kts 186°
2026-04-25 13:35 36.99246 30.80522 1635 ft 131 kts 186°
2026-04-25 13:35 36.98333 30.80397 1498 ft 136 kts 186°
2026-04-25 13:35 36.97367 30.80265 1326 ft 138 kts 186°
2026-04-25 13:35 36.96422 30.80137 1143 ft 136 kts 186°
2026-04-25 13:36 36.95489 30.80014 966 ft 135 kts 184°
2026-04-25 13:36 36.94550 30.79888 780 ft 136 kts 187°
2026-04-25 13:36 36.93617 30.79750 603 ft 133 kts 185°
2026-04-25 13:36 36.92686 30.79625 443 ft 134 kts 186°
2026-04-25 13:37 36.91766 30.79507 274 ft 132 kts 185°
2026-04-25 13:37 36.90853 30.79376 192 ft 127 kts 185°
2026-04-25 13:37 36.89978 30.79258 243 ft 140 kts 185°
2026-04-25 13:37 36.89002 30.79167 1007 ft 145 kts 184°
2026-04-25 13:38 36.88001 30.79060 1798 ft 155 kts 185°
2026-04-25 13:38 36.86890 30.78785 2493 ft 174 kts 197°
2026-04-25 13:38 36.85692 30.78174 2963 ft 201 kts 202°
2026-04-25 13:38 36.84329 30.77483 2908 ft 217 kts 200°
2026-04-25 13:39 36.82900 30.76791 2943 ft 220 kts 200°
2026-04-25 13:39 36.81444 30.76099 2954 ft 223 kts 199°
2026-04-25 13:39 36.80003 30.75423 2952 ft 222 kts 200°
2026-04-25 13:39 36.78727 30.74358 2972 ft 224 kts 232°
2026-04-25 13:40 36.78129 30.72562 2994 ft 230 kts 266°
2026-04-25 13:40 36.78441 30.70613 2997 ft 230 kts 301°
2026-04-25 13:40 36.79547 30.69235 2999 ft 230 kts 335°
2026-04-25 13:40 36.81094 30.68851 3003 ft 226 kts 10°
2026-04-25 13:41 36.82502 30.69588 3004 ft 223 kts 44°
2026-04-25 13:41 36.83519 30.71076 2989 ft 231 kts 55°
2026-04-25 13:41 36.84493 30.72779 2965 ft 243 kts 56°
2026-04-25 13:41 36.85469 30.74490 2955 ft 242 kts 55°
2026-04-25 13:42 36.86445 30.76205 2956 ft 242 kts 56°
2026-04-25 13:42 36.87426 30.77924 2955 ft 242 kts 56°
2026-04-25 13:42 36.88398 30.79624 2955 ft 243 kts 56°
2026-04-25 13:42 36.89389 30.81360 2956 ft 243 kts 56°
2026-04-25 13:43 36.90368 30.83070 2955 ft 242 kts 56°
2026-04-25 13:43 36.91345 30.84772 2956 ft 242 kts 56°
2026-04-25 13:43 36.92330 30.86485 2955 ft 242 kts 56°
2026-04-25 13:43 36.93321 30.88204 2954 ft 243 kts 56°
2026-04-25 13:44 36.94403 30.89785 2957 ft 243 kts 36°
2026-04-25 13:44 36.95965 30.90597 2991 ft 247 kts 10°
2026-04-25 13:44 36.97687 30.90853 2958 ft 248 kts
2026-04-25 13:44 36.99382 30.91072 2952 ft 245 kts
2026-04-25 13:45 37.01089 30.91297 2958 ft 246 kts
2026-04-25 13:45 37.02790 30.91522 2957 ft 242 kts
2026-04-25 13:45 37.04412 30.91738 2944 ft 225 kts
2026-04-25 13:45 37.05934 30.91940 2963 ft 221 kts
2026-04-25 13:46 37.07487 30.92147 2973 ft 226 kts
2026-04-25 13:46 37.09031 30.91860 2995 ft 226 kts 332°
2026-04-25 13:46 37.10229 30.90584 3008 ft 229 kts 308°
2026-04-25 13:46 37.11171 30.88985 2974 ft 229 kts 306°
2026-04-25 13:47 37.12101 30.87366 2979 ft 228 kts 306°
2026-04-25 13:47 37.12991 30.85723 2980 ft 228 kts 294°
2026-04-25 13:47 37.13251 30.83836 3008 ft 218 kts 258°
2026-04-25 13:47 37.12621 30.82154 3028 ft 214 kts 224°
2026-04-25 13:48 37.11329 30.81367 3030 ft 208 kts 181°
2026-04-25 13:48 37.09922 30.81456 2977 ft 202 kts 176°
2026-04-25 13:48 37.08532 30.81475 2961 ft 194 kts 181°
2026-04-25 13:48 37.07215 30.81417 2991 ft 186 kts 182°
2026-04-25 13:49 37.05909 30.81320 2933 ft 192 kts 184°
2026-04-25 13:49 37.04562 30.81187 2679 ft 191 kts 184°
2026-04-25 13:49 37.03255 30.81037 2429 ft 186 kts 185°
2026-04-25 13:49 37.01983 30.80880 2194 ft 185 kts 185°
2026-04-25 13:50 37.00693 30.80712 1952 ft 185 kts 185°
2026-04-25 13:50 36.99423 30.80543 1712 ft 184 kts 186°
2026-04-25 13:50 36.98183 30.80377 1408 ft 168 kts 186°
2026-04-25 13:50 36.97107 30.80232 1234 ft 143 kts 186°
2026-04-25 13:51 36.96165 30.80117 1077 ft 134 kts 186°
2026-04-25 13:51 36.95227 30.79989 926 ft 138 kts 186°
2026-04-25 13:51 36.94266 30.79851 746 ft 137 kts 185°
2026-04-25 13:51 36.93327 30.79716 576 ft 136 kts 186°
2026-04-25 13:52 36.92382 30.79586 383 ft 136 kts 185°
2026-04-25 13:52 36.91454 30.79462 207 ft 134 kts 185°
2026-04-25 13:52 36.90604 30.79347 188 ft 94 kts 188°
2026-04-25 13:52 36.90152 30.79283 187 ft 49 kts 186°
2026-04-25 13:53 36.89883 30.79248 187 ft 25 kts 186°
2026-04-25 13:53 36.89789 30.79236 187 ft 8 kts 186°
2026-04-25 13:53 36.89690 30.79222 187 ft 17 kts 187°
2026-04-25 13:53 36.89578 30.79239 187 ft 14 kts 157°
2026-04-25 13:54 36.89493 30.79285 187 ft 11 kts 157°
2026-04-25 13:54 36.89452 30.79307 187 ft 0 kts 156°
2026-04-25 13:54 36.89449 30.79309 187 ft 0 kts 156°
2026-04-25 13:54 36.89448 30.79310 187 ft 0 kts 156°
2026-04-25 13:55 36.89442 30.79313 187 ft 2 kts 156°
2026-04-25 13:55 36.89422 30.79324 187 ft 4 kts 156°
2026-04-25 13:55 36.89378 30.79349 187 ft 8 kts 156°
2026-04-25 13:56 36.89333 30.79377 187 ft 6 kts 143°
2026-04-25 13:56 36.89312 30.79414 187 ft 4 kts 105°
2026-04-25 13:56 36.89308 30.79454 187 ft 4 kts 97°
2026-04-25 13:56 36.89304 30.79493 187 ft 4 kts 97°
2026-04-25 13:57 36.89300 30.79533 187 ft 4 kts 97°
2026-04-25 13:57 36.89297 30.79559 187 ft 4 kts 97°
2026-04-25 13:57 36.89293 30.79611 187 ft 4 kts 96°
2026-04-25 13:57 36.89290 30.79651 187 ft 4 kts 96°
2026-04-25 13:58 36.89286 30.79690 187 ft 4 kts 96°
2026-04-25 13:58 36.89286 30.79726 187 ft 3 kts 70°
2026-04-25 13:58 36.89298 30.79740 187 ft 1 kts 18°
2026-04-25 13:58 36.89320 30.79743 187 ft 4 kts
2026-04-25 13:59 36.89350 30.79747 187 ft 2 kts
2026-04-25 13:59 36.89351 30.79747 187 ft 0 kts